TimeEST,TemperatureF,Dew PointF,Humidity,Sea Level PressureIn,VisibilityMPH,Wind Direction,Wind SpeedMPH,Gust SpeedMPH,PrecipitationIn,Events,Conditions,WindDirDegrees,DateUTC
12:55 AM,36.5,33.4,89,30.25,10.0,ENE,4.6,-,N/A,,Scattered Clouds,60,2012-12-07 05:55:00
1:55 AM,37.2,33.6,87,30.25,10.0,NNW,3.5,-,N/A,,Clear,340,2012-12-07 06:55:00
2:55 AM,34.2,32.2,92,30.24,10.0,North,3.5,-,N/A,,Clear,350,2012-12-07 07:55:00
3:55 AM,34.3,32.9,94,30.23,10.0,Calm,Calm,-,N/A,,Mostly Cloudy,0,2012-12-07 08:55:00
4:55 AM,35.8,34.3,94,30.21,10.0,Calm,Calm,-,N/A,,Scattered Clouds,0,2012-12-07 09:55:00
5:55 AM,41.4,40.5,97,30.21,10.0,North,3.5,-,N/A,,Overcast,350,2012-12-07 10:55:00
6:55 AM,43.2,41.4,93,30.22,10.0,Calm,Calm,-,N/A,,Overcast,0,2012-12-07 11:55:00
7:23 AM,44.6,42.8,93,30.21,10.0,Calm,Calm,-,N/A,,Overcast,0,2012-12-07 12:23:00
7:55 AM,45.1,43.5,94,30.21,10.0,Calm,Calm,-,N/A,,Overcast,0,2012-12-07 12:55:00
8:38 AM,46.4,44.6,93,30.20,10.0,Calm,Calm,-,N/A,,Overcast,0,2012-12-07 13:38:00
8:55 AM,46.6,44.1,91,30.20,10.0,Calm,Calm,-,N/A,,Overcast,0,2012-12-07 13:55:00
9:55 AM,50.2,45.1,83,30.19,10.0,ESE,4.6,-,N/A,,Overcast,120,2012-12-07 14:55:00
10:55 AM,54.5,45.7,72,30.16,10.0,ESE,6.9,-,N/A,,Mostly Cloudy,120,2012-12-07 15:55:00
11:55 AM,57.4,45.9,65,30.14,10.0,Calm,Calm,-,0.08,,Mostly Cloudy,0,2012-12-07 16:55:00
12:55 PM,56.7,46.2,68,30.12,10.0,NE,5.8,-,N/A,,Mostly Cloudy,40,2012-12-07 17:55:00
1:55 PM,56.1,46.4,70,30.09,10.0,ENE,5.8,-,N/A,,Overcast,60,2012-12-07 18:55:00
2:55 PM,54.3,46.8,76,30.08,10.0,ENE,5.8,-,N/A,,Overcast,60,2012-12-07 19:55:00
3:55 PM,51.8,46.6,82,30.08,10.0,ENE,4.6,-,N/A,,Overcast,60,2012-12-07 20:55:00
4:55 PM,50.9,47.1,87,30.07,10.0,NE,3.5,-,N/A,,Overcast,40,2012-12-07 21:55:00
5:01 PM,51.8,46.4,82,30.07,10.0,North,3.5,-,N/A,Rain,Light Rain,350,2012-12-07 22:01:00
5:14 PM,51.8,48.2,88,30.07,10.0,Calm,Calm,-,N/A,,Overcast,0,2012-12-07 22:14:00
5:55 PM,50.5,48.0,91,30.07,10.0,Calm,Calm,-,0.00,,Overcast,0,2012-12-07 22:55:00
6:55 PM,49.8,47.5,92,30.06,10.0,NE,3.5,-,N/A,,Overcast,50,2012-12-07 23:55:00
7:55 PM,50.0,48.7,95,30.05,10.0,Calm,Calm,-,N/A,,Overcast,0,2012-12-08 00:55:00
8:55 PM,55.4,51.4,87,30.03,10.0,SSE,3.5,-,N/A,,Mostly Cloudy,160,2012-12-08 01:55:00
9:23 PM,55.4,51.8,88,30.02,10.0,South,4.6,-,N/A,,Overcast,180,2012-12-08 02:23:00
9:33 PM,57.2,53.6,88,30.01,10.0,South,3.5,-,N/A,,Overcast,180,2012-12-08 02:33:00
9:55 PM,56.7,52.9,87,30.02,10.0,Calm,Calm,-,N/A,,Overcast,0,2012-12-08 02:55:00
10:38 PM,59.0,55.4,88,30.01,10.0,South,6.9,-,N/A,,Overcast,190,2012-12-08 03:38:00
10:55 PM,59.2,56.3,90,30.01,10.0,SSW,6.9,-,N/A,,Overcast,200,2012-12-08 03:55:00
11:05 PM,59.0,57.2,94,30.01,10.0,SSW,6.9,-,N/A,,Mostly Cloudy,200,2012-12-08 04:05:00
11:27 PM,59.0,57.2,94,30.00,10.0,SSW,4.6,-,N/A,,Mostly Cloudy,200,2012-12-08 04:27:00
11:44 PM,59.0,57.2,94,29.99,10.0,SSW,4.6,-,N/A,,Overcast,200,2012-12-08 04:44:00
11:55 PM,59.2,57.9,96,29.99,10.0,SSW,4.6,-,N/A,,Overcast,200,2012-12-08 04:55:00